Weather History for Winfield, KS

Change the Weather History Date:

Sunday, October 7, 2012

  Actual Average Record
Temperature  
Mean Temperature 44 °F -  
Max Temperature 57 °F 71 °F 91 °F (2014)
Min Temperature 30 °F 49 °F 30 °F (2012)
Degree Days  
Heating Degree Days 22    
Moisture  
Dew Point 29 °F    
Average Humidity 59    
Maximum Humidity 92    
Minimum Humidity 30    
Precipitation  
Precipitation 0.00 in - - ()
Sea Level Pressure  
Sea Level Pressure 30.30 in    
Wind  
Wind Speed 5 mph (WNW)    
Max Wind Speed 8 mph    
Max Gust Speed -    
Visibility 10 miles    
Events      
Averages and records for this station are not official NWS values.
T = Trace of Precipitation, MM = Missing Value Source: NWS Daily Summary

Daily Weather History Graph

Daily Weather History Graph

Search for Another Location

Airport:

Trip Planner

Search our weather history database for the weather conditions in past years. The results will help you decide how hot, cold, wet, or windy it might be!

Date:

Astronomy

Oct. 07, 2012 Rise Set
Actual Time 7:29 AM CDT 7:01 PM CDT
Civil Twilight 7:03 AM CDT 7:27 PM CDT
Nautical Twilight 6:33 AM CDT 7:57 PM CDT
Astronomical Twilight 6:02 AM CDT 8:28 PM CDT
Moon No Moon Rise 2:01 PM CDT (10/7)
Length of Visible Light 12h 24m
Length of Day
11h 32m
Waning Gibbous, 56% of the Moon is Illuminated
Oct 7
Waning Gibbous
Oct 8
Last Quarter
Oct 15
New
Oct 21
First Quarter
Oct 29
Full

Hourly Weather History & Observations

Time (CDT) Temp. Windchill Dew Point Humidity Pressure Visibility Wind Dir Wind Speed Gust Speed Precip Events Conditions
12:54 AM 42.1 °F 37.7 °F 34.0 °F 73% 30.37 in 10.0 mi NNW 6.9 mph - N/A   Overcast
1:54 AM 41.0 °F 38.0 °F 34.0 °F 76% 30.37 in 10.0 mi NNW 4.6 mph - N/A   Overcast
2:54 AM 39.0 °F 36.8 °F 34.0 °F 82% 30.38 in 10.0 mi NNW 3.5 mph - N/A   Overcast
3:54 AM 35.1 °F 32.2 °F 32.0 °F 89% 30.37 in 10.0 mi NW 3.5 mph - N/A   Clear
4:54 AM 32.0 °F 27.5 °F 30.0 °F 92% 30.36 in 10.0 mi NW 4.6 mph - N/A   Clear
5:54 AM 32.0 °F 28.7 °F 30.0 °F 92% 30.36 in 10.0 mi North 3.5 mph - N/A   Clear
6:54 AM 30.9 °F 25.2 °F 28.9 °F 92% 30.37 in 10.0 mi NNW 5.8 mph - N/A   Clear
7:54 AM 32.0 °F - 30.0 °F 92% 30.37 in 10.0 mi Calm Calm - N/A   Clear
8:54 AM 39.9 °F 34.5 °F 34.0 °F 79% 30.38 in 10.0 mi North 8.1 mph - N/A   Clear
9:54 AM 44.1 °F 39.5 °F 34.0 °F 68% 30.37 in 10.0 mi North 8.1 mph - N/A   Clear
10:54 AM 48.9 °F - 28.0 °F 44% 30.36 in 10.0 mi Calm Calm - N/A   Clear
11:54 AM 50.0 °F - 25.0 °F 38% 30.35 in 10.0 mi Calm Calm - N/A   Clear
12:54 PM 51.1 °F - 24.1 °F 35% 30.33 in 10.0 mi Calm Calm - N/A   Clear
1:54 PM 54.0 °F - 25.0 °F 33% 30.29 in 10.0 mi Variable 3.5 mph - N/A   Clear
2:54 PM 55.9 °F - 26.1 °F 32% 30.25 in 10.0 mi Variable 3.5 mph - N/A   Clear
3:54 PM 57.0 °F - 26.1 °F 30% 30.24 in 10.0 mi NNW 3.5 mph - N/A   Clear
4:54 PM 57.0 °F - 26.1 °F 30% 30.21 in 10.0 mi SW 6.9 mph - N/A   Clear
5:54 PM 55.9 °F - 25.0 °F 30% 30.21 in 10.0 mi West 6.9 mph - N/A   Clear
6:54 PM 52.0 °F - 26.1 °F 37% 30.21 in 10.0 mi West 5.8 mph - N/A   Clear
7:54 PM 48.0 °F - 27.0 °F 44% 30.22 in 10.0 mi Calm Calm - N/A   Clear
8:54 PM 46.0 °F 41.9 °F 28.0 °F 50% 30.22 in 10.0 mi SSW 8.1 mph - N/A   Clear
9:54 PM 43.0 °F 38.2 °F 27.0 °F 53% 30.23 in 10.0 mi SSW 8.1 mph - N/A   Clear
10:54 PM 41.0 °F 35.8 °F 28.9 °F 62% 30.23 in 10.0 mi SW 8.1 mph - N/A   Clear
11:54 PM 37.9 °F 32.1 °F 30.0 °F 73% 30.22 in 10.0 mi SSW 8.1 mph - N/A   Clear